Regional Weather Roundup
Issued by NWS Huntsville, AL

Home | Current Version | Previous Version | Text Only | Print | Product List | Glossary On
Versions: 1 2 3 4 5 6 7 8 9 10 11 12 13 14 15 16 17 18 19 20 21 22 23 24 25 26 27
000
ASUS44 KHUN 251110
RWRHUN

WEATHER ROUNDUP FOR THE TENNESSEE VALLEY
NATIONAL WEATHER SERVICE HUNTSVILLE AL
600 AM CDT SAT OCT 25 2014

ALZ001>004-251200-
NORTHWEST ALABAMA

CITY           SKY/WX    TMP DP  RH WIND       PRES   REMARKS
COURTLAND HCN    N/A     43 N/A N/A CALM        N/A
RUSSELLVILLE     N/A     41 N/A N/A MISG        N/A
SHOALS AIRPORT CLEAR     45  42  89 CALM      30.13R
SHOALS TVA RES   N/A     45 N/A N/A MISG        N/A
$$

ALZ005>007-016-251200-
NORTH CENTRAL ALABAMA

CITY           SKY/WX    TMP DP  RH WIND       PRES   REMARKS
CULLMAN AG STN   N/A     45 N/A N/A CALM        N/A
DECATUR AP     CLEAR     44  41  89 CALM      30.12R
HUNTSVILLE AP  CLEAR     44  41  89 CALM      30.11R
HUN NWS/UAH      N/A     46  43  89 CALM        N/A
MERIDIANVILLE  CLEAR     39  36  87 CALM      30.11R
VINEMONT AP    FAIR      43  42  97 CALM      30.12R FOG
$$

ALZ008>010-251200-
NORTHEAST ALABAMA

CITY           SKY/WX    TMP DP  RH WIND       PRES   REMARKS
ALBERTVILLE    CLEAR     43  43 100 CALM      30.09R
FORT PAYNE     CLEAR     37  36  93 CALM      30.10R
SCOTTSBORO AP  CLEAR     41  41 100 CALM      30.12R
SCOTTSBORO HCN   N/A     41 N/A N/A MISG        N/A
VALLEY HEAD      N/A     39 N/A N/A MISG        N/A
$$

TNZ076-096-097-251200-
SOUTHEASTERN MIDDLE TENNESSEE

CITY           SKY/WX    TMP DP  RH WIND       PRES   REMARKS
TULLAHOMA      CLEAR     39  37  93 CALM      30.11R
WINCHESTER     CLEAR     39  37  93 CALM      30.11R
$$

...SURROUNDING SITES...

CITY           SKY/WX    TMP DP  RH WIND       PRES   REMARKS
ATLANTA        CLEAR     49  42  77 NW7       30.04R
ANNISTON       CLEAR     40  38  93 CALM      30.10R
BIRMINGHAM     CLEAR     44  41  89 CALM      30.12R
CHATTANOOGA    CLEAR     45  42  89 CALM      30.10R
CORINTH          N/A     48  46  93 CALM      30.10S
DALTON         CLEAR     45  43  93 N5        30.08R
GADSDEN        CLEAR     43  37  81 CALM      30.11R
GOLDEN TRNGL   CLEAR     45  43  93 NW3       30.10R
HALEYVILLE     FAIR      42  42 100 CALM      30.14R
JACKSON TN     PTCLDY    50  48  93 CALM      30.09R
MEMPHIS        CLEAR     56  53  90 S3        30.09S
NASHVILLE      PTCLDY    45  43  93 S3        30.09S
OXFORD MS      FAIR      48  46  93 CALM      30.13R
ROME           CLEAR     40  39  97 CALM      30.08R
SAVANNAH       MOCLDY    45  45 100 S3        30.10F
TUPELO         CLEAR     50  47  89 CALM      30.11R
TUSCALOOSA     CLEAR     46  43  89 CALM      30.11R
$$

...GULF COAST WEATHER...

CITY           SKY/WX    TMP DP  RH WIND       PRES   REMARKS
GULFPORT       CLEAR     49  46  90 CALM      30.10R
PASCAGOULA     CLEAR     43  42  97 CALM      30.10R
MOBILE         PTCLDY    47  45  93 CALM      30.10R
GULF SHORES    SUNNY     47  44  87 CALM      30.07R
PENSACOLA      CLEAR     50  47  89 N6        30.06R
DESTIN         CLEAR     57  48  72 N7        30.05R
PANAMA CITY    CLEAR     55  48  77 N6        30.04R
APPALACHICOLA  CLEAR     51  46  83 NW3       30.02R
$$




USA.gov is the U.S. government's official web portal to all federal, state and local government web resources and services.